Regional Weather Roundup
Issued by NWS

Home | Current Version | Previous Version | Graphics & Text | Print | Product List | Glossary On
Versions: 1 2 3 4 5 6 7 8 9 10 11 12 13 14 15 16 17 18 19 20 21 22 23 24 25 26 27 28 29 30 31 32 33 34 35 36 37 38 39 40 41 42 43 44 45 46 47 48 49 50
000
ASUS45 KTFX 230204
RWRMT
MONTANA HOURLY WEATHER ROUNDUP
NATIONAL WEATHER SERVICE GREAT FALLS MT
804 PM MDT WED OCT 22 2014

NOTE: "FAIR" INDICATES FEW OR NO CLOUDS BELOW 12000 FEET WITH NO
SIGNIFICANT WEATHER AND/OR OBSTRUCTIONS TO VISIBILITY.

* THESE STATIONS ARE NOT UNDER NWS QUALITY CONTROL. THEY DO NOT
   REPORT WEATHER SUCH AS PRECIPITATION OR FOG.

MTZ001>007-043-230300-
WEST OF THE DIVIDE
CITY           SKY/WX    TMP DP  RH WIND       PRES   REMARKS
KALISPELL      MOCLDY    52  37  57 S6        29.86F
MISSOULA       FAIR      54  37  53 SE9       29.93S
BUTTE          PTCLDY    39  32  76 S7        30.05R WCI  34
MULLAN PASS    CLOUDY    43  34  71 VRB6G17   29.89F
* ESSEX        N/A       47  41  80 N/A        N/A
* LINCOLN      N/A       44  34  68 NE1G6      N/A
* LOOKOUT PASS N/A       47  37  68 SE6G13     N/A
* POLSON       N/A       47  36  66 SE2        N/A
* SEELEY LAKE  N/A       42  36  79 N4         N/A
* THOMP F APT  PTCLDY    37  28  70 NE4        N/A
$$

MTZ008-052>055-230300-
SOUTHWEST MONTANA
CITY           SKY/WX    TMP DP  RH WIND       PRES   REMARKS
BOZEMAN        CLEAR     43  30  60 SE7       30.03S
DILLON         CLEAR     43  28  56 SW7       30.06R
W YELLOWSTONE  PTCLDY    36  27  70 SE5       30.19S WCI  32
* THREE FORKS  CLEAR     54  41  62 S15G25     N/A
* BOULDER HILL N/A       46  25  44 S8         N/A
* MONIDA PASS  N/A       36  29  76 S12G19     N/A   WCI  28
* RAYNOLDS PAS N/A       36  21  54 S10        N/A   WCI  29
* WHITEHALL    N/A       51  31  46 W9         N/A
* WISE RIVER   N/A       42  29  60 SW4G9      N/A
$$

MTZ009>010-012-014-046-048-049-054-230300-
EAST SLOPES AND CENTRAL MONTANA
CITY           SKY/WX    TMP DP  RH WIND       PRES   REMARKS
CUT BANK       PTCLDY    54  34  47 SW9       29.83F
GREAT FALLS    CLEAR     50  34  54 SW15      29.89R
HELENA         PTCLDY    54  34  47 CALM      29.95R
MALMSTROM AFB  CLEAR     50  34  54 SW14      29.90R
* CONRAD       CLEAR     43  37  79 SE5        N/A
* DEARBORN     N/A       57  32  39 SW5        N/A
* EAST GLACIER N/A       48  33  56 W21G30     N/A
* MONARCH      N/A       48  19  32 SW11G18    N/A
* PENDROY      N/A       45  31  58 SW2        N/A
* ROGERS PASS  N/A       47  31  54 E8G13      N/A
* SAINT MARY   N/A       50  34  54 SW9G23     N/A
* SWEET GRASS  N/A       52  34  50 SW22G30    N/A
$$

MTZ011-013-016-021-035-040-045-047-050-051-230300-
NORTH CENTRAL MONTANA
CITY           SKY/WX    TMP DP  RH WIND       PRES   REMARKS
HAVRE          CLEAR     52  36  55 SW13      29.83S
LEWISTOWN      CLEAR     48  30  50 SW15      29.93R
* CHESTER      N/A       52  34  50 SW6G13     N/A
* DENTON       N/A       47  29  50 SW9        N/A
* GEYSER       N/A       47  25  42 W6         N/A
* JUDITH GAP   N/A       47  29  50 S4G9       N/A
* LOMA         N/A       55  34  45 SE1        N/A
$$

MTZ017>020-022>027-061-062-230300-
NORTHEAST MONTANA
CITY           SKY/WX    TMP DP  RH WIND       PRES   REMARKS
GLASGOW        CLEAR     52  30  43 W3        29.87R
GLENDIVE       CLEAR     43  30  60 W9        29.93R
JORDAN         CLEAR     37  27  67 CALM      29.90R
SIDNEY         CLEAR     52  34  50 W9        29.90R
WOLF POINT     CLEAR     45  34  65 CALM      29.89R
* BEAVER HILL  N/A       49  30  48 SW8        N/A
* CIRCLE       N/A       47  32  56 N/A        N/A
* LINDSAY DVD  N/A       42  29  60 W6         N/A
* NAVAJO       N/A       45  33  63 W11        N/A
$$

MTZ028>042-056>058-230300-
SOUTHCENTRAL AND SOUTHEAST MONTANA
CITY           SKY/WX    TMP DP  RH WIND       PRES   REMARKS
BAKER          CLEAR     43  30  60 SW6       29.95S
BILLINGS       CLEAR     54  25  33 SW10      29.96R
LIVINGSTON     CLEAR     54  27  35 SW25G36   30.00R
MILES CITY     CLEAR     52  27  38 SW6       29.92R
* LAUREL APT   CLEAR     52  21  30 N/A        N/A
* ROUNDUP APT  CLEAR     52  25  35 W6         N/A
* ALZADA       N/A       44  29  56 E3         N/A
* HYSHAM       N/A       53  21  29 W1         N/A
* LAME DEER    N/A       49  22  35 SW5        N/A
* REED POINT   N/A       53  26  35 W9         N/A
* ROSCOE HILL  N/A       52  16  24 S15G26     N/A
$$

REGIONAL REPORTS...DAKOTAS
CITY           SKY/WX    TMP DP  RH WIND       PRES   REMARKS
WILLISTON      CLEAR     48  34  59 W9        29.86R
DICKINSON      CLEAR     45  32  60 W9        29.91R
CROSBY         CLEAR     45  43  93 W9        29.83R
BISMARCK       PTCLDY    52  37  57 SW7       29.90R
GRAND FORKS    CLOUDY    52  50  93 S8        29.84S
FARGO          CLOUDY    55  54  96 SW9       29.89S
BUFFALO SD     CLEAR     46  27  48 W7        29.91S
RAPID CITY     CLEAR     45  30  56 W5        30.02S
$$

REGIONAL REPORTS...WYOMING/IDAHO/WASHINGTON
CITY           SKY/WX    TMP DP  RH WIND       PRES   REMARKS
GILLETTE       CLEAR     39  25  57 W7        30.01R WCI  34
SHERIDAN       CLEAR     37  28  70 SW8       29.99S WCI  31
CODY           PTCLDY    54  21  27 W17G24    30.05R
YELLOWSTONE LA PTCLDY    28  25  89 NW3       30.25R
SALMON         PTCLDY   N/A N/A N/A N/A        N/A
MULLAN PASS    CLOUDY    43  34  71 VRB6G17   29.89S
SAND POINT     RAIN      48  48 100 SE5       29.82F
SPOKANE        LGT RAIN  50  48  93 E3        29.79F

$$




USA.gov is the U.S. government's official web portal to all federal, state and local government web resources and services.